Location: Arthez
(43.0833°N, 0.2500°W)
Time: 13:50:13
(UTC+00:00)

deb Kosmos-970 - Visible Passes

Search period start: 23 February 2024 00:00
Search period end: 04 March 2024 00:00
Orbit: 904 x 1105 km, 65.8° (Epoch: 22 February)

Date Brightness Start Highest point End Pass type
(mag) Time Alt. Az. Time Alt. Az. Time Alt. Az.
23 Feb ? 19:27:00 10° WNW 19:30:38 15° WSW 19:34:21 10° SW visible
24 Feb ? 18:11:21 10° NW 18:17:38 40° WSW 18:24:05 10° S visible
25 Feb ? 18:47:12 10° WNW 18:51:42 19° WSW 18:56:18 10° SW visible
27 Feb ? 18:07:37 10° WNW 18:12:45 23° WSW 18:18:00 10° SSW visible
28 Feb ? 05:57:42 10° SE 06:00:47 14° ESE 06:03:55 10° ENE visible
01 Mar ? 05:20:15 10° ESE 05:21:52 11° E 05:23:31 10° E visible
02 Mar ? 05:50:40 10° SSE 05:55:43 28° ESE 06:00:55 10° NE visible
